• In Hungary
  • List of Countries
  • For 7 days
  • Water Temperature
  • Satellite Maps
  • Weather Map
  • News
  • Weather Widgets
  • user-avatar
    Login

    Hourly Weather Slecin

    Today, 16 July, Monday

    Time Temperature Precipitation Wind Pressure Humidity
    00:00 +17°C° 0.1 mm 2 mps 736 mmHg 92%
    01:00 +16°C° 0.1 mm 2 mps 736 mmHg 93%
    02:00 +16°C° 0 mm 2 mps 736 mmHg 93%
    03:00 +16°C° 0 mm 2 mps 736 mmHg 94%
    04:00 +16°C° 0 mm 3 mps 735 mmHg 94%
    05:00 +17°C° 0 mm 3 mps 735 mmHg 90%
    06:00 +18°C° 0 mm 3 mps 735 mmHg 86%
    07:00 +19°C° 0 mm 4 mps 735 mmHg 82%
    08:00 +21°C° 0.2 mm 4 mps 735 mmHg 76%
    09:00 +22°C° 0.2 mm 5 mps 735 mmHg 70%
    10:00 +23°C° 0.2 mm 5 mps 735 mmHg 64%
    11:00 +25°C° 0.7 mm 5 mps 735 mmHg 65%
    12:00 +25°C° 0.7 mm 5 mps 734 mmHg 66%
    13:00 +25°C° 0.7 mm 5 mps 734 mmHg 67%
    14:00 +25°C° 0.6 mm 5 mps 734 mmHg 68%
    15:00 +25°C° 0.6 mm 5 mps 733 mmHg 68%
    16:00 +25°C° 0.6 mm 5 mps 733 mmHg 68%
    17:00 +23°C° 0.3 mm 4 mps 733 mmHg 73%
    18:00 +22°C° 0.3 mm 3 mps 733 mmHg 77%
    19:00 +21°C° 0.3 mm 3 mps 733 mmHg 82%
    20:00 +20°C° 0.6 mm 3 mps 733 mmHg 85%
    21:00 +19°C° 0.6 mm 3 mps 733 mmHg 89%
    22:00 +18°C° 0.6 mm 2 mps 733 mmHg 93%
    23:00 +17°C° 0.1 mm 3 mps 732 mmHg 94%

    Tomorrow, 17 July, Tuesday

    Time Temperature Precipitation Wind Pressure Humidity
    00:00 +17°C° 0.1 mm 3 mps 732 mmHg 95%
    01:00 +17°C° 0.1 mm 3 mps 732 mmHg 96%
    02:00 +17°C° 0 mm 3 mps 732 mmHg 96%
    03:00 +17°C° 0 mm 3 mps 732 mmHg 96%
    04:00 +17°C° 0 mm 3 mps 732 mmHg 96%
    05:00 +17°C° 0.1 mm 4 mps 732 mmHg 95%
    06:00 +18°C° 0.1 mm 4 mps 732 mmHg 93%
    07:00 +19°C° 0.1 mm 5 mps 731 mmHg 91%
    08:00 +19°C° 0.3 mm 5 mps 732 mmHg 90%
    09:00 +19°C° 0.3 mm 5 mps 732 mmHg 89%
    10:00 +19°C° 0.3 mm 5 mps 732 mmHg 89%
    11:00 +20°C° 0.2 mm 5 mps 731 mmHg 86%
    12:00 +20°C° 0.2 mm 5 mps 731 mmHg 83%
    13:00 +21°C° 0.2 mm 5 mps 731 mmHg 80%
    14:00 +21°C° 0.2 mm 5 mps 731 mmHg 80%
    15:00 +21°C° 0.2 mm 5 mps 731 mmHg 80%
    16:00 +21°C° 0.2 mm 5 mps 731 mmHg 79%
    17:00 +21°C° 0.1 mm 5 mps 731 mmHg 82%
    18:00 +20°C° 0.1 mm 5 mps 731 mmHg 85%
    19:00 +19°C° 0.1 mm 5 mps 731 mmHg 88%
    20:00 +19°C° 0 mm 4 mps 731 mmHg 90%
    21:00 +19°C° 0 mm 4 mps 731 mmHg 91%
    22:00 +19°C° 0 mm 4 mps 731 mmHg 92%
    23:00 +19°C° 0 mm 4 mps 731 mmHg 93%

    Day after tomorrow, 18 July, Wednesday

    Time Temperature Precipitation Wind Pressure Humidity
    00:00 +19°C° 0 mm 4 mps 731 mmHg 94%
    01:00 +18°C° 0 mm 4 mps 731 mmHg 95%
    02:00 +19°C° 0.1 mm 4 mps 731 mmHg 95%
    03:00 +19°C° 0.1 mm 5 mps 731 mmHg 95%
    04:00 +19°C° 0.1 mm 5 mps 731 mmHg 95%
    05:00 +19°C° 0.4 mm 5 mps 731 mmHg 94%
    06:00 +19°C° 0.4 mm 6 mps 731 mmHg 94%
    07:00 +19°C° 0.4 mm 6 mps 732 mmHg 93%
    08:00 +19°C° 0.3 mm 6 mps 732 mmHg 93%
    09:00 +19°C° 0.3 mm 6 mps 732 mmHg 92%
    10:00 +18°C° 0.3 mm 7 mps 732 mmHg 91%
    11:00 +20°C° 0.2 mm 7 mps 732 mmHg 90%
    12:00 +20°C° 0.2 mm 7 mps 732 mmHg 89%
    13:00 +20°C° 0.2 mm 7 mps 732 mmHg 88%
    14:00 +21°C° 0.1 mm 7 mps 732 mmHg 87%
    15:00 +21°C° 0.1 mm 6 mps 733 mmHg 85%
    16:00 +22°C° 0.1 mm 6 mps 733 mmHg 83%
    17:00 +21°C° 0.1 mm 6 mps 733 mmHg 85%
    18:00 +21°C° 0.1 mm 6 mps 733 mmHg 86%
    19:00 +20°C° 0.1 mm 5 mps 733 mmHg 88%
    20:00 +20°C° 0 mm 5 mps 734 mmHg 89%
    21:00 +20°C° 0 mm 5 mps 734 mmHg 90%
    22:00 +20°C° 0 mm 5 mps 734 mmHg 91%
    23:00 +19°C° 0 mm 5 mps 734 mmHg 92%

    19 July, Thursday

    Time Temperature Precipitation Wind Pressure Humidity
    00:00 +19°C° 0 mm 5 mps 735 mmHg 92%
    01:00 +19°C° 0 mm 5 mps 735 mmHg 93%
    02:00 +18°C° 0 mm 4 mps 735 mmHg 93%
    03:00 +18°C° 0 mm 4 mps 735 mmHg 93%
    04:00 +17°C° 0 mm 4 mps 735 mmHg 93%
    05:00 +17°C° 0 mm 5 mps 735 mmHg 90%
    06:00 +17°C° 0 mm 5 mps 736 mmHg 87%
    07:00 +19°C° 0 mm 5 mps 736 mmHg 84%
    08:00 +20°C° 0 mm 5 mps 736 mmHg 78%
    09:00 +22°C° 0 mm 5 mps 737 mmHg 72%
    10:00 +23°C° 0 mm 5 mps 737 mmHg 65%
    11:00 +24°C° 0 mm 6 mps 737 mmHg 61%
    12:00 +26°C° 0 mm 6 mps 737 mmHg 56%
    13:00 +27°C° 0 mm 6 mps 737 mmHg 52%
    14:00 +27°C° 0 mm 6 mps 736 mmHg 53%
    15:00 +27°C° 0 mm 6 mps 736 mmHg 54%
    16:00 +27°C° 0 mm 5 mps 736 mmHg 55%
    17:00 +25°C° 0 mm 5 mps 736 mmHg 61%
    18:00 +23°C° 0 mm 4 mps 736 mmHg 66%
    19:00 +22°C° 0 mm 3 mps 736 mmHg 72%
    20:00 +21°C° 0 mm 3 mps 737 mmHg 76%
    21:00 +19°C° 0 mm 2 mps 737 mmHg 80%
    22:00 +18°C° 0 mm 2 mps 737 mmHg 84%
    23:00 +18°C° 0 mm 2 mps 737 mmHg 87%

    20 July, Friday

    Time Temperature Precipitation Wind Pressure Humidity
    00:00 +17°C° 0 mm 2 mps 737 mmHg 89%
    01:00 +17°C° 0 mm 2 mps 737 mmHg 91%
    02:00 +16°C° 0 mm 2 mps 737 mmHg 92%
    03:00 +16°C° 0 mm 1 mps 737 mmHg 93%
    04:00 +16°C° 0 mm 1 mps 737 mmHg 94%
    05:00 +17°C° 0 mm 2 mps 737 mmHg 88%
    06:00 +19°C° 0 mm 2 mps 737 mmHg 82%
    07:00 +20°C° 0 mm 2 mps 738 mmHg 76%
    08:00 +23°C° 0 mm 2 mps 738 mmHg 68%
    09:00 +24°C° 0 mm 3 mps 738 mmHg 59%
    10:00 +25°C° 0 mm 3 mps 738 mmHg 51%
    11:00 +26°C° 0 mm 3 mps 737 mmHg 48%
    12:00 +26°C° 0 mm 3 mps 737 mmHg 45%
    13:00 +27°C° 0 mm 3 mps 737 mmHg 42%
    14:00 +27°C° 0 mm 3 mps 737 mmHg 42%
    15:00 +27°C° 0 mm 3 mps 737 mmHg 43%
    16:00 +27°C° 0 mm 2 mps 736 mmHg 43%
    17:00 +25°C° 0 mm 2 mps 736 mmHg 48%
    18:00 +24°C° 0 mm 2 mps 736 mmHg 54%
    19:00 +21°C° 0 mm 2 mps 736 mmHg 59%
    20:00 +21°C° 0 mm 1 mps 736 mmHg 60%
    21:00 +20°C° 0 mm 1 mps 736 mmHg 61%
    22:00 +19°C° 0 mm 1 mps 736 mmHg 62%
    23:00 +18°C° 0 mm 1 mps 736 mmHg 64%

    21 July, Saturday

    Time Temperature Precipitation Wind Pressure Humidity
    00:00 +18°C° 0 mm 1 mps 736 mmHg 66%
    01:00 +16°C° 0 mm 1 mps 736 mmHg 68%
    02:00 +16°C° 0 mm 1 mps 735 mmHg 70%
    03:00 +16°C° 0 mm 2 mps 735 mmHg 72%
    04:00 +16°C° 0 mm 2 mps 735 mmHg 74%
    05:00 +17°C° 0 mm 2 mps 735 mmHg 71%
    06:00 +19°C° 0 mm 2 mps 735 mmHg 69%
    07:00 +20°C° 0 mm 3 mps 735 mmHg 66%
    08:00 +22°C° 0 mm 3 mps 735 mmHg 62%
    09:00 +25°C° 0 mm 3 mps 735 mmHg 58%
    10:00 +26°C° 0 mm 3 mps 735 mmHg 54%
    11:00 +27°C° 0.1 mm 3 mps 734 mmHg 52%
    12:00 +28°C° 0.1 mm 3 mps 734 mmHg 51%
    13:00 +29°C° 0.1 mm 3 mps 734 mmHg 50%
    14:00 +28°C° 0 mm 3 mps 734 mmHg 52%
    15:00 +28°C° 0 mm 3 mps 733 mmHg 53%
    16:00 +28°C° 0 mm 2 mps 733 mmHg 55%
    17:00 +27°C° 0.4 mm 2 mps 733 mmHg 62%
    18:00 +25°C° 0.4 mm 2 mps 733 mmHg 69%
    19:00 +24°C° 0.4 mm 2 mps 732 mmHg 75%
    20:00 +23°C° 0 mm 2 mps 732 mmHg 78%
    21:00 +21°C° 0 mm 3 mps 732 mmHg 80%
    22:00 +20°C° 0 mm 3 mps 732 mmHg 82%
    23:00 +20°C° 0.1 mm 3 mps 732 mmHg 84%
    Show more